BAW194 EGCC-EDDF

Flight info

Callsign BAW194
Flight time N/A
Altitude 36000
Route SONEX L975 DESIG L603 DOLAS DCT NAVPI DCT NOLRU DCT DIXAT DIXAT1A
Aircraft B772/H-SDE2E3FGHIJ5LORVWXY/LB1D1

Departure

Time N/A
Airport Manchester Airport (EGCC)

Arrival

Time 2026-04-15 22:48
Airport Frankfurt Main Airport (EDDF)
Time Latitude Longitude Altitude Speed Heading
2026-04-15 21:55 52.03552 4.54896 36116 ft 479 kts 121°
2026-04-15 21:56 52.00550 4.64555 36117 ft 477 kts 121°
2026-04-15 21:56 51.97655 4.73833 36114 ft 477 kts 122°
2026-04-15 21:57 51.94665 4.83377 36116 ft 476 kts 122°
2026-04-15 21:57 51.91689 4.92845 36119 ft 474 kts 122°
2026-04-15 21:58 51.88762 5.02115 36132 ft 475 kts 122°
2026-04-15 21:58 51.85760 5.11588 36138 ft 474 kts 122°
2026-04-15 21:59 51.82760 5.21020 36131 ft 474 kts 122°
2026-04-15 21:59 51.79729 5.30510 36141 ft 475 kts 122°
2026-04-15 22:00 51.76697 5.39969 36136 ft 475 kts 122°
2026-04-15 22:00 51.73661 5.49405 36140 ft 475 kts 122°
2026-04-15 22:01 51.70610 5.58846 36137 ft 476 kts 122°
2026-04-15 22:01 51.67548 5.68293 36138 ft 475 kts 123°
2026-04-15 22:02 51.64470 5.77746 36155 ft 476 kts 123°
2026-04-15 22:02 51.61391 5.87172 36149 ft 475 kts 123°
2026-04-15 22:03 51.58309 5.96567 36138 ft 475 kts 123°
2026-04-15 22:03 51.55228 6.05924 36145 ft 475 kts 123°
2026-04-15 22:04 51.52146 6.15251 36141 ft 476 kts 123°
2026-04-15 22:04 51.49086 6.24678 36139 ft 479 kts 118°
2026-04-15 22:05 51.46687 6.34697 36143 ft 480 kts 115°
2026-04-15 22:05 51.44304 6.44706 36141 ft 482 kts 115°
2026-04-15 22:06 51.41898 6.54619 36145 ft 481 kts 116°
2026-04-15 22:06 51.39439 6.64619 36153 ft 482 kts 116°
2026-04-15 22:07 51.37002 6.74445 36148 ft 481 kts 117°
2026-04-15 22:07 51.34531 6.84339 36138 ft 481 kts 117°
2026-04-15 22:08 51.32022 6.94326 36146 ft 484 kts 116°
2026-04-15 22:08 51.29490 7.04270 36150 ft 481 kts 120°
2026-04-15 22:09 51.25880 7.12989 36155 ft 466 kts 138°
2026-04-15 22:09 51.20913 7.19275 36150 ft 452 kts 156°
2026-04-15 22:10 51.15327 7.23946 36156 ft 452 kts 158°
2026-04-15 22:10 51.09762 7.28476 36159 ft 450 kts 157°
2026-04-15 22:11 51.04213 7.33109 36163 ft 452 kts 158°
2026-04-15 22:11 50.98618 7.37754 36160 ft 452 kts 158°
2026-04-15 22:12 50.93030 7.42363 36158 ft 453 kts 158°
2026-04-15 22:12 50.87466 7.46933 36169 ft 451 kts 158°
2026-04-15 22:13 50.81881 7.51499 36175 ft 453 kts 158°
2026-04-15 22:13 50.76283 7.56064 36177 ft 452 kts 158°
2026-04-15 22:14 50.70683 7.60616 36175 ft 451 kts 158°
2026-04-15 22:14 50.65144 7.65105 36180 ft 451 kts 158°
2026-04-15 22:15 50.59531 7.69641 36173 ft 452 kts 158°
2026-04-15 22:15 50.53939 7.74146 36174 ft 452 kts 158°
2026-04-15 22:16 50.48327 7.78655 36174 ft 452 kts 158°
2026-04-15 22:16 50.42845 7.83419 36177 ft 458 kts 149°
2026-04-15 22:17 50.37790 7.89590 36178 ft 461 kts 147°
2026-04-15 22:17 50.32780 7.95808 36173 ft 459 kts 146°
2026-04-15 22:18 50.27769 8.02040 36168 ft 461 kts 144°
2026-04-15 22:18 50.23465 8.09586 36172 ft 471 kts 132°
2026-04-15 22:19 50.19481 8.17682 36173 ft 471 kts 132°
2026-04-15 22:19 50.15536 8.25895 36169 ft 475 kts 126°
2026-04-15 22:20 50.12863 8.35427 35715 ft 492 kts 108°
2026-04-15 22:20 50.12228 8.40678 35218 ft 495 kts 98°
2026-04-15 22:20 50.12120 8.45979 34730 ft 496 kts 89°
2026-04-15 22:20 50.12528 8.51300 34011 ft 498 kts 79°
2026-04-15 22:21 50.13436 8.56542 32750 ft 509 kts 70°
2026-04-15 22:21 50.14683 8.61734 31536 ft 513 kts 68°
2026-04-15 22:21 50.15911 8.66691 30822 ft 507 kts 69°
2026-04-15 22:21 50.17200 8.71903 30420 ft 497 kts 69°
2026-04-15 22:22 50.18444 8.76938 29966 ft 489 kts 69°
2026-04-15 22:22 50.19650 8.81831 29363 ft 485 kts 69°
2026-04-15 22:22 50.20848 8.86704 28732 ft 482 kts 69°
2026-04-15 22:22 50.22040 8.91563 28173 ft 477 kts 69°
2026-04-15 22:23 50.23214 8.96356 27601 ft 473 kts 69°
2026-04-15 22:23 50.24383 9.01144 27040 ft 468 kts 69°
2026-04-15 22:23 50.25533 9.05862 26488 ft 464 kts 68°
2026-04-15 22:23 50.26683 9.10590 25931 ft 459 kts 68°
2026-04-15 22:24 50.27802 9.15200 25395 ft 455 kts 68°
2026-04-15 22:24 50.28918 9.19808 24910 ft 449 kts 68°
2026-04-15 22:24 50.29997 9.24273 24788 ft 434 kts 68°
2026-04-15 22:24 50.31053 9.28652 24766 ft 418 kts 68°
2026-04-15 22:25 50.32059 9.32829 24584 ft 408 kts 68°
2026-04-15 22:25 50.33057 9.36975 23748 ft 416 kts 68°
2026-04-15 22:25 50.34031 9.41293 22835 ft 425 kts 70°
2026-04-15 22:25 50.34985 9.45656 21929 ft 432 kts 70°
2026-04-15 22:26 50.35954 9.50094 21027 ft 438 kts 70°
2026-04-15 22:26 50.36941 9.54618 20118 ft 442 kts 70°
2026-04-15 22:26 50.37939 9.59192 19211 ft 445 kts 70°
2026-04-15 22:26 50.38926 9.63722 18319 ft 447 kts 70°
2026-04-15 22:27 50.39941 9.68388 17393 ft 445 kts 71°
2026-04-15 22:27 50.40927 9.72930 16511 ft 440 kts 70°
2026-04-15 22:27 50.41901 9.77425 15629 ft 435 kts 71°
2026-04-15 22:27 50.42861 9.81862 14750 ft 430 kts 71°
2026-04-15 22:28 50.43801 9.86216 14040 ft 420 kts 71°
2026-04-15 22:28 50.44725 9.90505 13423 ft 409 kts 71°
2026-04-15 22:28 50.45614 9.94636 12817 ft 399 kts 71°
2026-04-15 22:28 50.46498 9.98756 12220 ft 392 kts 71°
2026-04-15 22:29 50.47445 10.02729 11670 ft 386 kts 68°
2026-04-15 22:29 50.48287 10.06635 11441 ft 372 kts 73°
2026-04-15 22:29 50.48703 10.10533 11299 ft 357 kts 89°
2026-04-15 22:29 50.48374 10.14302 11116 ft 345 kts 108°
2026-04-15 22:30 50.47256 10.17602 10725 ft 338 kts 130°
2026-04-15 22:30 50.45484 10.19913 10323 ft 330 kts 153°
2026-04-15 22:30 50.43338 10.20955 9918 ft 323 kts 176°
2026-04-15 22:30 50.41140 10.20624 9679 ft 309 kts 199°
2026-04-15 22:31 50.39301 10.19132 9608 ft 292 kts 220°
2026-04-15 22:31 50.37986 10.16875 9585 ft 275 kts 239°
2026-04-15 22:31 50.37220 10.14173 9450 ft 265 kts 253°
2026-04-15 22:31 50.36697 10.11439 9187 ft 263 kts 254°
2026-04-15 22:32 50.36181 10.08680 8884 ft 262 kts 254°
2026-04-15 22:32 50.35676 10.05977 8593 ft 261 kts 254°
2026-04-15 22:32 50.35164 10.03240 8307 ft 260 kts 254°
2026-04-15 22:32 50.34653 10.00519 8013 ft 259 kts 254°
2026-04-15 22:33 50.34148 9.97827 7722 ft 258 kts 254°
2026-04-15 22:33 50.33643 9.95142 7425 ft 258 kts 254°
2026-04-15 22:33 50.33135 9.92446 7137 ft 257 kts 254°
2026-04-15 22:33 50.32633 9.89787 6842 ft 256 kts 254°
2026-04-15 22:34 50.32125 9.87096 6580 ft 254 kts 254°
2026-04-15 22:34 50.31625 9.84455 6300 ft 254 kts 254°
2026-04-15 22:34 50.31131 9.81843 6048 ft 252 kts 254°
2026-04-15 22:34 50.30633 9.79218 5995 ft 250 kts 254°
2026-04-15 22:35 50.30140 9.76626 5997 ft 251 kts 254°
2026-04-15 22:35 50.29641 9.74001 5998 ft 251 kts 254°
2026-04-15 22:35 50.29143 9.71386 6002 ft 251 kts 254°
2026-04-15 22:35 50.28642 9.68757 6000 ft 250 kts 254°
2026-04-15 22:36 50.28142 9.66138 6003 ft 252 kts 254°
2026-04-15 22:36 50.27640 9.63514 6004 ft 252 kts 254°
2026-04-15 22:36 50.27138 9.60893 6005 ft 253 kts 254°
2026-04-15 22:36 50.26637 9.58283 5999 ft 252 kts 254°
2026-04-15 22:37 50.26131 9.55645 5999 ft 251 kts 254°
2026-04-15 22:37 50.25627 9.53026 6000 ft 252 kts 254°
2026-04-15 22:37 50.25118 9.50384 6001 ft 252 kts 254°
2026-04-15 22:37 50.24615 9.47771 6003 ft 252 kts 254°
2026-04-15 22:38 50.24106 9.45138 6004 ft 252 kts 254°
2026-04-15 22:38 50.23598 9.42508 6005 ft 252 kts 254°
2026-04-15 22:38 50.23061 9.39893 6003 ft 252 kts 251°
2026-04-15 22:38 50.22461 9.37363 6004 ft 252 kts 251°
2026-04-15 22:39 50.21859 9.34803 6004 ft 251 kts 250°
2026-04-15 22:39 50.21263 9.32234 5794 ft 249 kts 250°
2026-04-15 22:39 50.20670 9.29664 5462 ft 250 kts 250°
2026-04-15 22:39 50.20083 9.27121 5210 ft 249 kts 250°
2026-04-15 22:40 50.19503 9.24611 5052 ft 243 kts 250°
2026-04-15 22:40 50.18936 9.22162 5008 ft 233 kts 250°
2026-04-15 22:40 50.18389 9.19802 4915 ft 229 kts 250°
2026-04-15 22:41 50.17313 9.15164 4666 ft 226 kts 250°
2026-04-15 22:41 50.16774 9.12846 4541 ft 226 kts 250°
2026-04-15 22:41 50.16241 9.10553 4396 ft 225 kts 250°
2026-04-15 22:41 50.15705 9.08254 4248 ft 225 kts 250°
2026-04-15 22:42 50.15173 9.05971 4098 ft 223 kts 250°
2026-04-15 22:42 50.14645 9.03711 4000 ft 222 kts 250°
2026-04-15 22:42 50.14108 9.01411 3995 ft 224 kts 250°
2026-04-15 22:42 50.13577 8.99142 3991 ft 224 kts 250°
2026-04-15 22:43 50.13037 8.96835 3992 ft 223 kts 250°
2026-04-15 22:43 50.12504 8.94561 3991 ft 224 kts 250°
2026-04-15 22:43 50.11971 8.92280 4003 ft 223 kts 250°
2026-04-15 22:43 50.11436 8.89987 3992 ft 223 kts 250°
2026-04-15 22:44 50.10907 8.87723 3990 ft 223 kts 250°
2026-04-15 22:44 50.10390 8.85524 3976 ft 208 kts 250°
2026-04-15 22:44 50.09895 8.83424 3715 ft 207 kts 250°
2026-04-15 22:44 50.09399 8.81329 3449 ft 206 kts 251°
2026-04-15 22:45 50.08904 8.79237 3179 ft 204 kts 250°
2026-04-15 22:45 50.08414 8.77170 2910 ft 204 kts 250°
2026-04-15 22:45 50.07926 8.75112 2638 ft 203 kts 250°
2026-04-15 22:45 50.07437 8.73053 2363 ft 203 kts 250°
2026-04-15 22:46 50.06956 8.71027 2085 ft 186 kts 250°
2026-04-15 22:46 50.06529 8.69235 1856 ft 168 kts 249°
2026-04-15 22:46 50.06144 8.67617 1643 ft 156 kts 249°
2026-04-15 22:46 50.05774 8.66060 1432 ft 147 kts 249°
2026-04-15 22:47 50.05427 8.64608 1240 ft 142 kts 249°
2026-04-15 22:47 50.05084 8.63169 1037 ft 140 kts 249°
2026-04-15 22:47 50.04743 8.61740 838 ft 141 kts 248°
2026-04-15 22:47 50.04413 8.60303 629 ft 142 kts 250°
2026-04-15 22:48 50.04071 8.58857 403 ft 143 kts 247°
2026-04-15 22:48 50.03720 8.57497 355 ft 114 kts 249°
2026-04-15 22:48 50.03518 8.56611 346 ft 61 kts 249°
2026-04-15 22:48 50.03432 8.56255 345 ft 7 kts 253°
2026-04-15 22:49 50.03421 8.56197 344 ft 9 kts 257°
2026-04-15 22:49 50.03392 8.56046 343 ft 18 kts 245°
2026-04-15 22:49 50.03318 8.55867 343 ft 12 kts 234°
2026-04-15 22:49 50.03268 8.55783 342 ft 0 kts 221°
2026-04-15 22:50 50.03254 8.55764 341 ft 5 kts 224°
2026-04-15 22:50 50.03216 8.55679 340 ft 12 kts 242°